Date String (YYYY-MM-DD hh:mm:ss) UTC,Instrument flags,Ambient pressure (hPa),Sample flow (lpm),Bypass flow (lpm),Sample temperature (°C),Ambient temperature (°C),ASC tube jacket temperature (°C),LED temperature (°C),Box temperature (°C),Sample RH (%),Mass concentration (μg/m³),Mass concentration (μg/m³)
DateTimeUTC,F1_M11,P_M11,Q1_M11,Q2_M11,T1_M11,T2_M11,T3_M11,T4_M11,T5_M11,U1_M11,X0_M11,X2_M11
2021-08-17 07:00:00,,0825.7,4.99,0.00,29.8,28.9,00.0,38.7,31.7,16.0,0039.28,0026.24
2021-08-17 07:01:00,,0825.6,4.99,0.00,29.8,28.9,00.0,38.7,31.7,16.0,0039.39,0026.29
2021-08-17 07:02:00,,0825.6,5.01,0.00,29.8,27.5,00.0,38.7,31.2,16.0,0038.86,0026.28
2021-08-17 07:03:00,,0825.6,4.99,0.00,29.5,25.5,00.0,38.7,30.7,16.1,0039.00,0026.29
2021-08-17 07:04:00,,0825.6,5.02,0.00,29.4,25.4,00.0,38.7,30.6,16.2,0038.38,0026.25
2021-08-17 07:05:00,,0825.6,5.00,0.00,29.3,25.9,00.0,38.6,30.7,16.7,0037.85,0026.28
2021-08-17 07:06:00,,0825.6,4.99,0.00,29.3,26.4,00.0,38.6,30.8,16.6,0038.13,0026.31
2021-08-17 07:07:00,,0825.5,4.99,0.00,29.3,26.8,00.0,38.5,30.9,16.6,0038.53,0026.36
2021-08-17 07:08:00,,0825.5,5.01,0.00,29.3,27.2,00.0,38.5,30.9,16.5,0038.49,0026.32
2021-08-17 07:09:00,,0825.5,4.99,0.00,29.3,27.5,00.0,38.5,31.0,16.4,0038.24,0026.30
2021-08-17 07:10:00,,0825.6,5.01,0.00,29.3,27.7,00.0,38.5,31.1,16.4,0038.19,0026.30
2021-08-17 07:11:00,,0825.6,4.99,0.00,29.3,27.9,00.0,38.5,31.1,16.4,0038.52,0026.31
2021-08-17 07:12:00,,0825.6,5.01,0.00,29.4,28.1,00.0,38.5,31.2,16.6,0038.65,0026.26
2021-08-17 07:13:00,,0825.6,5.02,0.00,29.4,28.2,00.0,38.5,31.2,16.3,0038.75,0026.26
2021-08-17 07:14:00,,0825.6,4.99,0.00,29.4,28.3,00.0,38.5,31.2,16.3,0038.83,0026.25
2021-08-17 07:15:00,,0825.6,5.00,0.00,29.5,28.4,00.0,38.5,31.3,16.2,0038.72,0026.24
2021-08-17 07:16:00,,0825.6,4.99,0.00,29.5,28.5,00.0,38.5,31.3,16.2,0038.40,0026.27
2021-08-17 07:17:00,,0825.6,5.00,0.00,29.6,28.5,00.0,38.5,31.4,16.4,0037.68,0026.26
2021-08-17 07:18:00,,0825.7,5.02,0.00,29.6,28.6,00.0,38.6,31.4,16.3,0037.38,0026.22
2021-08-17 07:19:00,,0825.6,5.00,0.00,29.6,28.6,00.0,38.6,31.4,16.2,0037.22,0026.20
2021-08-17 07:20:00,,0825.7,4.99,0.00,29.7,28.7,00.0,38.6,31.5,16.3,0036.81,0026.14
2021-08-17 07:21:00,,0825.7,5.01,0.00,29.7,28.8,00.0,38.6,31.6,16.5,0036.56,0026.10
2021-08-17 07:22:00,,0825.7,5.00,0.00,29.7,28.8,00.0,38.7,31.6,16.5,0035.83,0026.11
2021-08-17 07:23:00,,0825.6,5.01,0.00,29.8,28.9,00.0,38.7,31.6,16.6,0035.37,0026.12
2021-08-17 07:24:00,,0825.6,4.99,0.00,29.8,28.8,00.0,38.7,31.6,16.6,0035.11,0026.11
2021-08-17 07:25:00,,0825.6,5.01,0.00,29.7,27.2,00.0,38.7,31.2,16.6,0034.73,0026.13
2021-08-17 07:26:00,,0825.6,5.00,0.00,29.6,26.2,00.0,38.7,30.9,16.8,0034.65,0026.16
2021-08-17 07:27:00,,0825.6,5.00,0.00,29.5,26.4,00.0,38.7,30.9,17.0,0035.20,0026.19
2021-08-17 07:28:00,,0825.6,5.00,0.00,29.4,26.8,00.0,38.6,31.0,17.0,0036.42,0026.19
2021-08-17 07:29:00,,0825.6,5.00,0.00,29.4,27.1,00.0,38.6,31.0,17.1,0036.49,0026.24
2021-08-17 07:30:00,,0825.6,4.99,0.00,29.4,27.5,00.0,38.6,31.1,17.0,0038.27,0026.32
2021-08-17 07:31:00,,0825.6,5.00,0.00,29.4,27.7,00.0,38.6,31.1,17.0,0038.53,0026.37
2021-08-17 07:32:00,,0825.6,5.01,0.00,29.5,27.9,00.0,38.6,31.2,16.9,0038.39,0026.34
2021-08-17 07:33:00,,0825.5,5.00,0.00,29.5,28.1,00.0,38.6,31.2,16.6,0038.61,0026.31
2021-08-17 07:34:00,,0825.5,5.01,0.00,29.5,28.2,00.0,38.6,31.3,16.6,0039.55,0026.32
2021-08-17 07:35:00,,0825.5,5.00,0.00,29.5,28.3,00.0,38.6,31.3,16.6,0039.51,0026.34
2021-08-17 07:36:00,,0825.5,4.99,0.00,29.6,28.4,00.0,38.6,31.4,16.5,0039.57,0026.35
2021-08-17 07:37:00,,0825.5,5.00,0.00,29.6,28.5,00.0,38.6,31.4,16.4,0039.15,0026.34
2021-08-17 07:38:00,,0825.5,5.00,0.00,29.6,28.6,00.0,38.6,31.4,16.4,0038.82,0026.27
2021-08-17 07:39:00,,0825.5,5.01,0.00,29.7,28.6,00.0,38.7,31.5,16.4,0037.54,0026.24
2021-08-17 07:40:00,,0825.5,5.00,0.00,29.7,28.7,00.0,38.7,31.5,16.3,0036.97,0026.13
2021-08-17 07:41:00,,0825.5,5.01,0.00,29.7,28.7,00.0,38.7,31.6,16.2,0035.55,0026.05
2021-08-17 07:42:00,,0825.5,4.98,0.00,29.8,28.8,00.0,38.7,31.6,16.1,0035.34,0026.01
2021-08-17 07:43:00,,0825.5,5.01,0.00,29.8,28.8,00.0,38.7,31.6,16.1,0035.44,0026.05
2021-08-17 07:44:00,,0825.5,5.00,0.00,29.8,27.6,00.0,38.8,31.3,16.7,0035.56,0026.01
2021-08-17 07:45:00,,0825.5,4.99,0.00,29.6,26.2,00.0,38.7,30.9,16.2,0034.59,0025.97
2021-08-17 07:46:00,,0825.4,5.00,0.00,29.5,26.3,00.0,38.7,31.0,16.2,0034.49,0025.94
2021-08-17 07:47:00,,0825.4,5.01,0.00,29.5,26.6,00.0,38.7,31.0,16.2,0034.52,0025.90
2021-08-17 07:48:00,,0825.4,5.00,0.00,29.4,27.0,00.0,38.6,31.0,16.3,0034.50,0025.82
2021-08-17 07:49:00,,0825.4,5.00,0.00,29.4,27.3,00.0,38.6,31.1,16.3,0034.26,0025.84
2021-08-17 07:50:00,,0825.5,4.99,0.00,29.4,27.6,00.0,38.6,31.1,16.3,0034.02,0025.83
2021-08-17 07:51:00,,0825.4,5.00,0.00,29.5,27.8,00.0,38.6,31.2,16.3,0033.95,0025.85
2021-08-17 07:52:00,,0825.4,5.00,0.00,29.5,28.0,00.0,38.6,31.2,16.2,0034.09,0025.85
2021-08-17 07:53:00,,0825.5,5.00,0.00,29.5,28.1,00.0,38.6,31.3,16.3,0034.71,0025.93
2021-08-17 07:54:00,,0825.4,5.00,0.00,29.5,28.3,00.0,38.6,31.3,16.5,0035.16,0025.95
2021-08-17 07:55:00,,0825.4,5.00,0.00,29.6,28.4,00.0,38.6,31.3,16.6,0034.75,0025.95
2021-08-17 07:56:00,,0825.4,5.01,0.00,29.6,28.4,00.0,38.6,31.4,16.5,0035.06,0025.89
2021-08-17 07:57:00,,0825.4,4.99,0.00,29.6,28.5,00.0,38.6,31.4,16.6,0035.23,0025.84
2021-08-17 07:58:00,,0825.4,5.01,0.00,29.7,28.6,00.0,38.7,31.5,16.6,0035.25,0025.84
2021-08-17 07:59:00,,0825.4,4.99,0.00,29.7,28.6,00.0,38.7,31.5,16.5,0035.28,0025.90
